Weather History for Scottsbluff, NE

Change the Weather History Date:

Wednesday, January 22, 2014

  Actual Average Record
Temperature  
Mean Temperature 25 °F 28 °F  
Max Temperature 38 °F 41 °F 65 °F (2009)
Min Temperature 11 °F 14 °F -19 °F (1917)
Degree Days  
Heating Degree Days 40 37  
Month to date heating degree days 741 837  
Since 1 July heating degree days 3469 3609  
Cooling Degree Days 0 0  
Month to date cooling degree days 0 0  
Year to date cooling degree days 0 0  
Moisture  
Dew Point 14 °F    
Average Humidity 57    
Maximum Humidity 74    
Minimum Humidity 40    
Precipitation  
Precipitation 0.00 in 0.02 in 0.22 in (1996)
Month to date precipitation 0.30 0.29  
Year to date precipitation 0.30 0.29  
Snow  
Snow 0.00 in 0.20 in 4.00 in (2003)
Month to date snowfall 3.7 3.8  
Since 1 July snowfall 27.8 19.8  
Snow Depth 0.00 in    
Sea Level Pressure  
Sea Level Pressure 30.29 in    
Wind  
Wind Speed 11 mph (North)    
Max Wind Speed 21 mph    
Max Gust Speed 25 mph    
Visibility 10 miles    
Events      
T = Trace of Precipitation, MM = Missing Value Source: NWS Daily Summary

Daily Weather History Graph

Daily Weather History Graph

Search for Another Location

Airport:

Trip Planner

Search our weather history database for the weather conditions in past years. The results will help you decide how hot, cold, wet, or windy it might be!

Date:

Astronomy

Jan. 22, 2014 Rise Set
Actual Time 7:15 AM MST 4:57 PM MST
Civil Twilight 6:45 AM MST 5:27 PM MST
Nautical Twilight 6:11 AM MST 6:01 PM MST
Astronomical Twilight 5:38 AM MST 6:34 PM MST
Moon 11:38 PM MST (1/22) 10:11 AM MST (1/22)
Length of Visible Light 10h 42m
Length of Day
9h 41m
Waning Gibbous, 65% of the Moon is Illuminated
Jan 22
Waning Gibbous
Jan 23
Last Quarter
Jan 30
New
Feb 6
First Quarter
Feb 14
Full

Hourly Weather History & Observations

Time (MST) Temp. Windchill Dew Point Humidity Pressure Visibility Wind Dir Wind Speed Gust Speed Precip Events Conditions
12:53 AM 28.0 °F 20.8 °F 16.0 °F 61% 30.14 in 10.0 mi WNW 6.9 mph - N/A   Mostly Cloudy
1:53 AM 30.9 °F 25.2 °F 18.0 °F 59% 30.13 in 10.0 mi WNW 5.8 mph - N/A   Overcast
2:53 AM 30.9 °F 22.8 °F 18.0 °F 59% 30.14 in 10.0 mi West 9.2 mph - N/A   Overcast
3:53 AM 28.0 °F 21.7 °F 18.0 °F 66% 30.14 in 10.0 mi WNW 5.8 mph - N/A   Scattered Clouds
4:53 AM 30.9 °F 23.5 °F 19.0 °F 61% 30.16 in 10.0 mi West 8.1 mph - N/A   Overcast
5:53 AM 28.9 °F 21.9 °F 19.0 °F 67% 30.18 in 10.0 mi NW 6.9 mph - N/A   Mostly Cloudy
6:53 AM 28.0 °F 22.8 °F 19.9 °F 72% 30.20 in 10.0 mi WNW 4.6 mph - N/A   Partly Cloudy
7:53 AM 30.0 °F 25.2 °F 21.0 °F 69% 30.22 in 10.0 mi West 4.6 mph - N/A   Overcast
8:53 AM 34.0 °F 28.8 °F 24.1 °F 67% 30.22 in 10.0 mi WNW 5.8 mph - N/A   Overcast
9:53 AM 36.0 °F 25.6 °F 21.0 °F 55% 30.22 in 10.0 mi NNW 18.4 mph - N/A   Overcast
10:53 AM 37.0 °F 27.4 °F 17.1 °F 44% 30.24 in 10.0 mi NNW 17.3 mph - N/A   Overcast
11:53 AM 37.9 °F 30.0 °F 15.1 °F 39% 30.22 in 10.0 mi North 12.7 mph - N/A   Mostly Cloudy
12:53 PM 37.0 °F 29.3 °F 15.1 °F 41% 30.20 in 10.0 mi North 11.5 mph - N/A   Overcast
1:53 PM 35.1 °F 26.9 °F 16.0 °F 46% 30.20 in 10.0 mi NNE 11.5 mph - N/A   Overcast
2:53 PM 32.0 °F 24.2 °F 18.0 °F 56% 30.22 in 10.0 mi NNE 9.2 mph - N/A   Overcast
3:53 PM 28.9 °F 18.6 °F 18.0 °F 64% 30.26 in 10.0 mi NE 12.7 mph - N/A   Overcast
4:53 PM 23.0 °F 9.6 °F 15.1 °F 72% 30.32 in 10.0 mi ENE 16.1 mph 23.0 mph N/A   Overcast
5:45 PM 19.4 °F 5.0 °F 10.4 °F 68% 30.25 in 10.0 mi East 16.1 mph - N/A   Overcast
5:53 PM 19.0 °F 5.0 °F 10.9 °F 71% 30.38 in 10.0 mi ENE 15.0 mph - N/A   Overcast
6:53 PM 16.0 °F 1.1 °F 7.0 °F 68% 30.43 in 10.0 mi ENE 15.0 mph - N/A   Overcast
7:53 PM 14.0 °F -1.4 °F 6.1 °F 71% 30.48 in 10.0 mi ENE 15.0 mph - N/A   Overcast
8:53 PM 12.9 °F -2.8 °F 5.0 °F 71% 30.49 in 10.0 mi ENE 15.0 mph - N/A   Overcast
9:53 PM 12.9 °F -0.9 °F 3.9 °F 67% 30.52 in 10.0 mi East 11.5 mph - N/A   Overcast
10:53 PM 12.0 °F -0.4 °F 3.9 °F 70% 30.54 in 10.0 mi ENE 9.2 mph - N/A   Overcast
11:53 PM 10.9 °F -0.8 °F 1.9 °F 67% 30.56 in 10.0 mi East 8.1 mph - N/A   Overcast